Wetbulb
57.97 55.90 53.70 51.97 51.25 50.62 50.08 50.44 51.44 51.26 51.52 51.02 51.11 51.19 48.78 47.70 47.91 47.98 47.54 47.91 47.53 47.08
56.82 56.14 53.00 52.36 52.00 51.14 50.49 51.12 51.89 51.57 50.99 50.81 51.15 51.21 50.01 48.57 49.15 48.44 48.14 48.39 48.32 47.52
55.63 55.74 53.77 51.71 51.08 50.20 50.57 52.06 51.62 50.94 49.94 48.90 50.80 51.05 50.07 48.94 48.61 48.80 48.58 49.05 49.33 48.39
55.51 55.07 53.04 52.53 52.14 51.12 51.15 51.59 51.69 51.31 49.98 48.54 49.22 50.26 49.18 49.03 48.54 48.81 49.23 49.27 49.19 49.74
56.49 55.13 54.68 53.26 52.86 52.30 51.60 51.85 51.98 51.58 50.46 49.27 47.99 49.37 50.06 50.02 50.53 49.53 50.04 50.57 49.09 49.68
55.89 54.50 54.60 53.45 52.90 52.50 52.53 51.79 51.54 51.20 50.19 50.06 49.12 48.16 50.32 50.43 50.49 50.79 50.70 49.66 49.73 49.47
56.01 55.21 54.11 53.91 52.68 52.23 52.52 51.90 51.20 51.02 51.55 50.75 50.53 49.05 49.11 50.10 50.52 50.70 50.02 50.01 49.49 49.37
56.98 55.85 54.48 53.53 52.92 52.15 52.38 52.04 51.95 51.37 51.58 50.78 49.34 48.78 49.62 49.89 49.90 49.64 49.68 49.49 49.32 49.15
56.86 55.39 53.82 52.44 52.23 51.29 52.00 51.65 51.97 51.94 51.17 49.03 49.84 48.20 48.79 49.72 48.83 48.93 48.54 48.70 48.18 49.60
56.79 55.50 54.34 52.86 53.02 51.42 51.16 51.97 51.40 51.16 51.82 51.02 51.06 47.75 47.37 49.22 49.55 48.83 48.00 48.02 49.51 50.55
56.77 55.66 54.22 52.61 51.79 51.94 51.35 51.69 52.06 52.11 51.80 52.11 51.35 48.12 46.60 47.56 50.11 47.76 48.57 49.91 50.51 49.42
56.76 55.61 54.64 53.37 52.37 52.89 51.93 51.72 51.63 52.24 51.63 49.66 50.57 46.91 45.66 47.22 48.28 49.12 50.05 48.96 49.13 47.62
57.17 56.17 54.72 54.40 53.62 53.39 52.89 52.72 53.11 52.07 50.83 49.59 50.28 45.75 45.71 47.64 50.56 50.52 50.19 45.02 47.32 44.66
57.23 56.81 56.52 55.69 54.87 53.90 53.52 53.22 52.40 51.96 51.42 50.19 50.04 49.88 44.44 44.90 51.32 50.68 47.93 44.91 44.38 44.78
MSLP
1017.46 1018.37 1018.84 1019.48 1019.82 1020.68 1021.19 1021.60 1021.73 1021.95 1022.59 1022.73 1022.87 1023.54 1023.29 1023.18 1023.06 1022.88 1022.89 1023.27 1023.26 1023.25
1017.27 1018.18 1018.56 1019.11 1020.00 1020.71 1021.03 1021.38 1021.65 1021.92 1022.24 1022.43 1022.90 1022.90 1023.05 1023.23 1023.14 1022.96 1022.98 1023.25 1023.24 1023.28
1016.90 1017.55 1018.34 1018.98 1019.63 1020.20 1020.83 1021.26 1021.63 1021.86 1021.96 1022.34 1022.53 1022.29 1022.62 1023.07 1023.13 1023.03 1023.02 1023.12 1023.16 1023.17
1016.79 1017.45 1018.07 1018.60 1019.32 1019.89 1020.53 1020.94 1021.34 1021.44 1021.80 1022.28 1021.83 1021.95 1022.52 1022.71 1022.72 1022.73 1022.93 1022.88 1022.87 1022.83
1016.64 1017.37 1018.06 1018.47 1018.81 1019.47 1020.07 1020.53 1020.86 1021.25 1021.65 1021.44 1021.33 1021.50 1022.10 1022.32 1022.19 1022.32 1022.55 1022.45 1022.59 1022.56
1016.57 1017.25 1017.79 1018.11 1018.27 1019.03 1019.57 1020.11 1020.51 1020.98 1021.10 1020.98 1020.95 1021.02 1021.40 1021.75 1021.78 1021.94 1022.14 1022.07 1022.27 1022.02
1016.15 1016.73 1017.22 1017.54 1018.22 1018.59 1019.30 1019.82 1020.23 1020.57 1020.66 1020.54 1020.66 1020.42 1020.71 1021.04 1021.36 1021.65 1021.72 1021.77 1021.86 1021.73
1015.52 1016.16 1016.84 1017.44 1017.87 1018.15 1018.83 1019.13 1019.38 1020.06 1020.28 1020.22 1020.19 1019.69 1020.21 1020.63 1021.02 1021.27 1021.39 1021.44 1021.50 1021.26
1015.14 1015.71 1016.18 1016.70 1017.25 1017.68 1018.24 1018.50 1019.01 1019.54 1019.59 1019.76 1019.33 1019.03 1019.57 1020.02 1020.49 1020.68 1021.02 1021.16 1021.03 1020.76
1014.83 1015.30 1015.73 1016.26 1016.97 1017.18 1017.36 1018.24 1018.76 1019.01 1019.08 1018.95 1018.81 1018.40 1019.21 1019.66 1019.86 1020.16 1020.63 1020.82 1020.57 1020.48
1014.36 1014.93 1015.08 1015.60 1016.13 1016.82 1017.22 1017.62 1018.59 1018.81 1018.46 1018.41 1018.38 1018.19 1018.73 1019.12 1019.35 1019.89 1020.18 1020.15 1020.15 1020.23
1014.16 1014.44 1014.92 1015.16 1015.68 1016.26 1017.05 1017.92 1017.85 1018.09 1018.17 1018.24 1018.02 1018.02 1018.33 1018.54 1019.19 1019.61 1019.54 1019.68 1019.96 1019.98
1013.89 1014.04 1014.29 1014.70 1015.07 1015.80 1015.93 1016.70 1017.39 1017.72 1017.82 1018.16 1017.91 1017.94 1018.10 1018.24 1018.73 1019.01 1019.01 1019.38 1019.83 1019.80
1013.53 1013.65 1013.71 1014.14 1014.69 1015.06 1015.78 1016.16 1017.23 1017.58 1017.96 1017.90 1017.76 1017.72 1017.93 1017.94 1018.22 1018.48 1018.90 1019.22 1019.62 1019.75
Wind_Speed
9 7 6 7 6 5 5 4 5 4 4 4 4 4 3 1 2 3 3 3 2 1
7 7 7 7 4 3 3 4 5 5 6 5 5 5 4 2 2 2 2 2 2 1
8 7 6 6 8 7 5 5 6 6 6 6 6 5 5 2 2 2 1 1 3 3
7 8 7 8 8 8 6 7 8 8 7 7 6 5 4 4 3 3 3 3 4 5
7 7 8 8 8 8 9 8 9 8 8 7 6 6 6 6 5 5 5 5 4 6
6 8 9 9 9 9 9 10 9 9 8 7 7 7 6 5 5 5 5 4 5 6
9 10 9 9 8 9 10 11 9 8 8 7 6 6 5 5 5 5 5 5 5 6
9 9 8 8 9 8 8 9 9 8 6 6 6 5 6 5 5 5 5 5 5 4
9 9 9 10 9 8 7 8 8 8 8 8 6 8 11 8 6 5 5 5 3 4
8 10 10 10 8 10 11 6 7 8 8 8 7 9 9 12 5 5 4 4 4 4
9 10 10 10 11 8 7 9 8 9 7 5 7 9 10 10 5 4 5 5 3 3
9 9 9 12 11 9 7 6 5 4 4 6 7 8 7 8 5 4 4 2 3 4
7 9 11 11 12 8 8 8 7 6 5 7 5 4 7 7 4 4 3 2 3 5
7 9 9 8 7 9 7 6 4 3 3 5 5 5 8 9 4 3 2 3 3 4
Wind_Direction
162 183 177 172 162 179 176 184 173 167 179 194 174 201 173 154 151 124 109 103 110 124
159 174 171 166 153 181 164 182 182 176 176 188 200 192 176 183 186 142 134 151 195 231
166 171 155 149 179 177 185 182 178 183 179 185 198 183 170 194 240 197 181 198 227 242
163 171 167 178 185 182 177 183 192 189 187 195 179 174 182 198 215 221 252 260 265 265
164 168 179 194 186 176 186 191 197 194 197 184 182 174 194 203 199 213 235 251 245 267
162 173 197 197 181 182 189 195 195 195 195 191 189 180 194 201 210 221 238 241 244 260
183 187 194 188 186 179 189 189 191 198 198 197 200 186 189 197 218 234 237 241 246 265
187 180 170 184 192 174 181 184 183 189 202 199 201 181 190 195 212 227 249 248 261 272
179 179 181 179 176 168 190 187 183 195 193 202 211 183 203 193 204 219 246 277 287 286
187 191 190 185 196 194 184 167 192 204 198 207 226 186 206 210 203 215 210 232 267 304
193 199 186 182 186 192 165 162 193 214 206 216 240 194 209 208 183 176 209 220 238 240
201 195 192 192 187 175 157 199 176 215 227 227 231 199 209 152 152 199 217 195 237 191
202 203 196 196 184 175 181 191 196 200 211 236 236 146 160 154 158 200 190 130 239 198
209 216 212 195 189 174 184 147 189 174 252 248 231 190 183 173 166 176 166 189 215 234